Location: *
(29.1167°S, 130.0000°E)
Time: 00:03:39
(UTC+00:00)

AQUARIUS - Pass Details

Date: 21 July 2019
Orbit: 650 x 653 km, 98.0° (Epoch: 23 August)

Event Time Altitude Azimuth Distance (km) Brightness Sun altitude
Rises 09:29:37 0° 167° (SSE) 3,001 7.3 -10.5°
Reaches altitude 10° 09:31:51 10° 166° (SSE) 2,083 6.5 -10.9°
Maximum altitude 09:36:24 80° 77° (ENE) 672 4.1 -11.9°
Drops below altitude 10° 09:40:54 10° 351° (N) 2,056 7.1 -12.8°
Sets 09:43:06 0° 349° (N) 2,960 7.9 -13.3°
